{"data":{"norad_id":58623,"intl_designator":"2023-203F","name":"STARLINK-31068","alt_names":[],"object_type":"PAYLOAD","status":"ACTIVE","operator":null,"country":"US","launch_date":"2023-12-23","launch_site_code":"AFETR","launch_vehicle":null,"mission":null,"orbit_class":"UNKNOWN","rcs_meters":null,"size_class":null,"mass_kg":null,"dimensions":null,"purposes":["comms"],"wikipedia_slug":null,"has_3d_model":false,"image_url":null,"decayed_at":null,"tle_current":{"epoch":"2026-05-24T22:45:28.111392Z","epoch_age_seconds":73402,"freshness":"FRESH","line1":"1 58623U 23203F   26144.94824203  .00001660  00000+0  69829-4 0  9993","line2":"2 58623  43.0030 356.4708 0001139 273.7572  86.3150 15.27580303135226","mean_motion":15.27580303,"eccentricity":0.0001139,"inclination_deg":43.003,"raan_deg":356.4708,"arg_perigee_deg":273.7572,"mean_anomaly_deg":86.315,"bstar":6.9829e-5,"rev_number":13522,"period_min":94.266730015568,"perigee_km":482.2666997558,"apogee_km":483.8296777418,"semimajor_km":6861.1851887488,"source":"CELESTRAK","updated_at":"2026-05-25T13:38:18.705882Z"}}}